カタログに戻る

STARLINK-5508

運用中通信VLEO
NORAD 55639·PAYLOAD·🇺🇸 United States

打ち上げ Feb 17, 2023 から Vandenberg Space Force Base

Loading…

次のパス (今後24時間)

TLE

最新Source: CelesTrak SupGP

元期: Sep 15, 2026, 01:45 UTC

1 55639C 23021M   26258.07340278 -.00049133  00000+0 -41180-2 0  2585
2 55639  70.0011  66.9395 0002716 267.4387 306.7141 14.98351504    13

AllMySatでSTARLINK-5508をリアルタイム追跡

Download on the App Store